LRAR Weather Reports


time (UTC)temp
C
wind
direction
speed
KPH
gust
KPH
rain 1hr
cm
rain 24hr
cm
rain mn
cm
humidity
%
barometer
mb
20260504231839 10 140 8.0 0.0 0.00 0.00 0.00 71 1016.0
20260504230338 10 140 8.0 0.0 0.00 0.00 0.00 71 1016.0
20260504224838 10 140 8.0 0.0 0.00 0.00 0.00 71 1016.0
20260504223338 10 140 8.0 0.0 0.00 0.00 0.00 71 1016.0
20260504221901 11 140 8.0 0.0 0.00 0.00 0.00 67 1016.0
20260504220338 11 140 8.0 0.0 0.00 0.00 0.00 67 1016.0
20260504214838 12 110 3.2 0.0 0.00 0.00 0.00 63 1016.0
20260504213354 12 110 3.2 0.0 0.00 0.00 0.00 63 1016.0
20260504211838 11 130 3.2 0.0 0.00 0.00 0.00 77 1016.0
20260504210338 11 130 3.2 0.0 0.00 0.00 0.00 77 1016.0
20260504204838 12 150 3.2 0.0 0.00 0.00 0.00 67 1016.0
20260504203339 12 150 3.2 0.0 0.00 0.00 0.00 67 1016.0
20260504201838 12 0 0.0 0.0 0.00 0.00 0.00 63 1016.0
20260504200339 12 0 0.0 0.0 0.00 0.00 0.00 63 1016.0
20260504194838 12 220 3.2 0.0 0.00 0.00 0.00 63 1016.0
20260504193339 12 220 3.2 0.0 0.00 0.00 0.00 63 1016.0
20260504191838 15 220 3.2 0.0 0.00 0.00 0.00 51 1016.0
20260504190338 15 220 3.2 0.0 0.00 0.00 0.00 51 1016.0
20260504184838 16 230 3.2 0.0 0.00 0.00 0.00 52 1016.0
20260504183349 16 230 3.2 0.0 0.00 0.00 0.00 52 1016.0
20260504181838 17 230 4.8 0.0 0.00 0.00 0.00 49 1016.0
20260504180338 17 230 4.8 0.0 0.00 0.00 0.00 49 1016.0
20260504174838 21 240 3.2 0.0 0.00 0.00 0.00 35 1016.0
20260504173339 21 240 3.2 0.0 0.00 0.00 0.00 35 1016.0
20260504171838 22 270 4.8 0.0 0.00 0.00 0.00 25 1016.0
20260504170338 22 270 4.8 0.0 0.00 0.00 0.00 25 1016.0
20260504160339 25 250 4.8 0.0 0.00 0.00 0.00 24 1016.0
20260504150338 25 230 9.7 0.0 0.00 0.00 0.00 22 1016.0
20260504140339 25 210 8.0 0.0 0.00 0.00 0.00 22 1017.0
20260504130338 23 270 9.7 0.0 0.00 0.00 0.00 27 1017.0
20260504110339 22 8.0 0.0 0.00 0.00 0.00 29 1019.0
20260504100338 22 4.8 0.0 0.00 0.00 0.00 31 1019.0
20260504081838 18 4.8 0.0 0.00 0.00 0.00 37 1020.0
20260504080338 18 4.8 0.0 0.00 0.00 0.00 37 1020.0
20260504070339 17 3.2 0.0 0.00 0.00 0.00 42 1020.0
20260504050348 8 130 4.8 0.0 0.00 0.00 0.00 71 1020.0
20260504044839 7 150 8.0 0.0 0.00 0.00 0.00 76 1020.0
20260504043338 7 150 8.0 0.0 0.00 0.00 0.00 76 1020.0
20260504041838 5 130 8.0 0.0 0.00 0.00 0.00 81 1020.0
20260504040338 5 130 8.0 0.0 0.00 0.00 0.00 81 1020.0
20260504034839 5 130 4.8 0.0 0.00 0.00 0.00 76 1019.0
20260504033338 5 130 4.8 0.0 0.00 0.00 0.00 76 1019.0
20260504031838 6 160 4.8 0.0 0.00 0.00 0.00 76 1019.0
20260504030459 6 160 4.8 0.0 0.00 0.00 0.00 76 1019.0
20260504024839 6 140 11.3 0.0 0.00 0.00 0.00 76 1019.0
20260504023338 6 140 11.3 0.0 0.00 0.00 0.00 76 1019.0
20260504021838 6 130 9.7 0.0 0.00 0.00 0.00 76 1019.0
20260504020338 6 130 9.7 0.0 0.00 0.00 0.00 76 1019.0
20260504014838 7 140 8.0 0.0 0.00 0.00 0.00 76 1019.0
20260504013343 7 140 8.0 0.0 0.00 0.00 0.00 76 1019.0
20260504011958 6 130 8.0 0.0 0.00 0.00 0.00 76 1019.0
20260504010338 6 130 8.0 0.0 0.00 0.00 0.00 76 1019.0
20260504004958 6 130 8.0 0.0 0.00 0.00 0.00 76 1019.0
20260504003338 6 130 8.0 0.0 0.00 0.00 0.00 76 1019.0
20260504001838 6 150 1.6 0.0 0.00 0.00 0.00 81 1019.0
20260504000339 6 150 1.6 0.0 0.00 0.00 0.00 81 1019.0
20260503234918 6 140 3.2 0.0 0.00 0.00 0.00 81 1019.0
20260503233338 6 140 3.2 0.0 0.00 0.00 0.00 81 1019.0